www.pogodaiklimat.ru
ПОГОДА в Вунстдрехте
Время
(UTC), дата
22 15.02
23 15.02
00 16.02
02 16.02
01 16.02
03 16.02
04 16.02
05 16.02
06 16.02
08 16.02
07 16.02
09 16.02
10 16.02
11 16.02
12 16.02
14 16.02
13 16.02
15 16.02
16 16.02
17 16.02
18 16.02
20 16.02
19 16.02
21 16.02
22 16.02
23 16.02
00 17.02
02 17.02
01 17.02
03 17.02
04 17.02
05 17.02
06 17.02
08 17.02
07 17.02
09 17.02
10 17.02
11 17.02
12 17.02
14 17.02
13 17.02
15 17.02
16 17.02
17 17.02
18 17.02
20 17.02
19 17.02
21 17.02
22 17.02
23 17.02
00 18.02
02 18.02
01 18.02
03 18.02
04 18.02
05 18.02
06 18.02
08 18.02
07 18.02
09 18.02
10 18.02
11 18.02
12 18.02
14 18.02
13 18.02
15 18.02
16 18.02
17 18.02
18 18.02
20 18.02
19 18.02
21 18.02
22 18.02
23 18.02
00 19.02
02 19.02
01 19.02
03 19.02
04 19.02
05 19.02
06 19.02
08 19.02
07 19.02
09 19.02
10 19.02
11 19.02
12 19.02
14 19.02
13 19.02
15 19.02
16 19.02
17 19.02
18 19.02
20 19.02
19 19.02
21 19.02
22 19.02
23 19.02
00 20.02
02 20.02
01 20.02
03 20.02
04 20.02
05 20.02
06 20.02
08 20.02
07 20.02
09 20.02
10 20.02
11 20.02
12 20.02
14 20.02
13 20.02
15 20.02
16 20.02
17 20.02
18 20.02
20 20.02
19 20.02
21 20.02
22 20.02
23 20.02
00 21.02
02 21.02
01 21.02
03 21.02
04 21.02
05 21.02
06 21.02
08 21.02
07 21.02
09 21.02
10 21.02
11 21.02
12 21.02
14 21.02
13 21.02
15 21.02
16 21.02
17 21.02
18 21.02
20 21.02
19 21.02
21 21.02
22 21.02
23 21.02
00 22.02
02 22.02
01 22.02
03 22.02
04 22.02
05 22.02
06 22.02
08 22.02
07 22.02
09 22.02
10 22.02
11 22.02
12 22.02
14 22.02
13 22.02
15 22.02
16 22.02
17 22.02
18 22.02
20 22.02
19 22.02
21 22.02
Ветер
(напр.,м/с)
Видим. Явления Облачность Т
(С)
Тd
(С)
f
(%)
Тe
(С)
Тes
(С)
Комфортность P
(гПа)
Po
(гПа)
Тmin
(С)
Tmax
(С)
R
(мм)
R24
(мм)
S
(см)
ЮЗ 10-19
{19}
30 км 10/6 1000 м
[]
+13.1 +7.3 68 +10 +10 1006.7 1004.8
ЮЗ 8-13
{19}
35 км 10/10 600 м
[]
+13.2 +7.9 70 +10 +10 1006.2 1004.4
ЮЗ 9-16
{19}
40 км 10 баллов +13.6 +8.1 69 +11 +11 1005.7 1003.8
ЮЗ 8-14
{15}
40 км в посл. час морось 10/10 600 м
[]
+13.6 +8.1 69 +11 +11 1005.0 1003.2
ЮЗ 10-16
{17}
40 км 10/10 600 м
[]
+13.6 +8.0 69 +11 +11 1005.2 1003.3
Ю 8-13
{17}
35 км слаб. морось с дождем 10 баллов +13.2 +8.6 74 +10 +10 1003.6 1001.8
Ю 9-15
{19}
14 км слаб. дождь {морось} 10/8 600 м
[]
+11.8 +9.8 88 +8 +8 1002.3 1000.4 0.5
Ю 9-17
{17}
40 км слаб. дождь {морось} 10/10 300 м
[]
+12.5 +10.0 85 +9 +9 1002.3 1000.5 0.3
Ю 8-16
{19}
30 км слаб. морось {дождь} 10 баллов +12.4 +10.1 86 +9 +9 1001.3 999.4 +11.7 0.2 1.1
ЮЗ 9-14
{17}
45 км в посл. час дождь {ливн. осадки} 10/10 600 м
[]
+13.2 +9.8 80 +10 +10 1000.4 998.5 0.1
Ю 9-17
{18}
45 км в посл. час морось 10/10 600 м
[]
+13.1 +9.8 80 +10 +10 1000.6 998.8
ЮЗ 8-14
{20}
25 км слаб. ливневой дождь {морось} 10 баллов +13.9 +9.4 74 +11 +11 1000.1 998.2
Ю 9-16
{18}
45 км в посл. час дождь {ливн. осадки, морось} 10/10 1000 м
[]
+14.1 +9.5 74 +12 +12 999.8 998.0
ЮЗ 9-16
{17}
45 км {ливн. осадки, морось} 10/10 600 м
[]
+15.3 +9.7 69 +13 +13 999.7 997.9
ЮЗ 11-20
{20}
45 км {ливн. осадки, морось} 10 баллов +16.1 +10.0 67 +14 +14 998.5 996.7 0.1
ЮЗ 11-21
{21}
40 км 10/10 1500 м
[]
+16.5 +10.3 67 +15 +15 996.5 994.7
ЮЗ 10-20
{20}
45 км 10/9 1000 м
[]
+16.2 +10.2 68 +14 +14 997.6 995.8
ЮЗ 8-15
{21}
40 км 10 баллов +16.3 +10.5 69 +15 +15 995.6 993.8
ЮЗ 12-20
{24}
30 км 10/9 1000 м
[]
+16.6 +10.6 68 +15 +15 995.1 993.3
З 9-14
{24}
2800 м сильн. ливневой дождь {морось} 10/6 300 м
[]
+8.8 +8.5 98 +4 +4 998.9 996.5 7
З 9-13
{24}
11 км слаб. дождь {морось} 10 баллов +8.0 +6.8 92 +3 +3 1001.2 999.2 +16.7 2
ЮЗ 8-13
{15}
45 км слаб. дождь 10/9 1000 м
[]
+8.6 +5.8 83 +4 +4 1002.5 1000.6 0.3
ЮЗ 9-14
{15}
18 км слаб. дождь 10/10 1500 м
[]
+8.5 +6.5 87 +4 +4 1002.1 1000.1 1
ЮЗ 7-12
{15}
45 км в посл. час дождь 10 баллов +8.8 +5.8 81 +5 +5 1003.4 1001.3
ЮЗ 9-14
{14}
45 км {дождь} 10/9 600 м
[]
+9.0 +5.9 81 +4 +4 1004.5 1002.3
ЮЗ 9-16
{16}
30 км {дождь} 10/9 600 м
[]
+9.2 +5.3 77 +5 +5 1005.7 1003.7
ЮЗ 8-15
{16}
17 км {дождь} 8 баллов +8.9 +3.9 71 +5 +5 1007.1 1005.0 1
ЮЗ 10-14
{15}
15 км {ливн. осадки} ясно +7.8 +2.1 67 +3 +3 1009.4 1007.3
ЮЗ 10-17
{17}
18 км в посл. час дождь {ливн. осадки} 6/6 1000 м
[]
+8.5 +3.5 71 +4 +4 1008.1 1006.1
ЮЗ 8-12
{17}
14 км {ливн. осадки} 10 баллов +7.6 +1.2 64 +3 +3 1010.2 1008.3
ЮЗ 6-9
{14}
16 км {ливн. осадки} ясно +7.0 +2.1 71 +3 +3 1010.5 1008.6
ЮЗ 6-11
{11}
15 км {ливн. осадки} ясно +7.1 +3.2 76 +3 +3 1010.6 1008.7
ЮЗ 7-11
{17}
19 км {ливн. осадки} 1 балл +7.2 +3.1 75 +3 +3 1010.6 1008.7 +6.8 1 9.5
ЮЗ 5-10
{12}
19 км ясно +7.5 +3.2 74 +4 +4 1010.9 1008.9
ЮЗ 6-10
{13}
19 км ясно +6.9 +3.0 76 +3 +3 1010.8 1008.9
ЮЗ 7-12
{13}
22 км 6 баллов +8.5 +3.5 71 +4 +5 1011.1 1009.1
ЮЗ 6-11
{14}
22 км 10/10
[]
+8.8 +3.7 70 +5 +5 1011.0 1009.1
ЮЗ 9-13
{15}
30 км 9/8 1000 м
[]
+9.8 +4.1 68 +6 +6 1011.4 1009.5
З 13-20
{20}
7000 м слаб. ливневой дождь 10 баллов +5.2 +3.5 89 -2 -2 1012.5 1010.5 0.4
ЮЗ 7-13
{13}
35 км в посл. час дождь {ливн. осадки} 1/1 1000 м
[]
+9.3 +4.2 70 +5 +6 1011.5 1009.7
ЮЗ 8-13
{17}
24 км слаб. дождь 10/6 1000 м
[]
+6.4 +4.0 85 +1 +1 1011.7 1010.1 0.5
ЮЗ 9-14
{20}
28 км слаб. ливневой дождь 10 баллов +9.5 +3.2 65 +5 +5 1011.4 1009.5
ЮЗ 7-10
{21}
19 км морось {ливн. осадки, дождь} 9/8 1000 м
[]
+6.5 +4.0 84 +2 +2 1012.4 1010.5 2
ЮЗ 7-11
{11}
26 км в посл. час морось {ливн. осадки, дождь} 10/6 1000 м
[]
+7.8 +4.8 81 +3 +3 1012.4 1010.5
ЮЗ 8-13
{21}
22 км в посл. час морось {ливн. осадки, дождь} 10 баллов +8.0 +5.0 81 +3 +3 1012.9 1011.0 +10.3 3
ЮЗ 8-12
{12}
22 км в посл. час морось 10/10 1500 м
[]
+7.9 +4.9 81 +3 +3 1014.3 1012.3
ЮЗ 8-11
{12}
23 км слаб. морось 10/10 1500 м
[]
+7.9 +5.1 82 +3 +3 1013.7 1011.8
ЮЗ 8-12
{13}
21 км 4 балла +7.5 +4.6 82 +3 +3 1015.1 1013.1
ЮЗ 6-10
{12}
15 км 9/9
[]
+7.3 +4.7 84 +3 +3 1015.7 1013.7
ЮЗ 8-11
{11}
14 км 1/1
[]
+7.4 +4.5 82 +2 +2 1016.6 1014.6
ЮЗ 6-8
{13}
15 км 10 баллов +7.4 +4.6 82 +3 +3 1017.4 1015.5
ЮЗ 8-11
{13}
21 км 5/5 1000 м
[]
+6.6 +3.0 78 +1 +1 1018.9 1016.9
ЮЗ 7-11
{11}
19 км 10/6 600 м
[]
+7.2 +4.0 80 +3 +3 1018.1 1016.1
ЮЗ 6-9
{13}
21 км ясно +5.8 +2.6 80 +1 +1 1019.3 1017.4
ЮЗ 5-9
{9}
18 км 1/1 600 м
[]
+5.2 +2.3 82 +1 +1 1019.8 1017.9
ЮЗ 5-8
{8}
17 км 8/8 1000 м
[]
+5.2 +2.2 81 +1 +1 1020.0 1018.1
ЮЗ 5-8
{13}
17 км 3 балла +4.9 +2.2 83 0 0 1020.4 1018.4 +4.7 2.8
ЮЗ 5-8
{8}
15 км 3/1 1000 м
[]
+5.6 +3.3 85 +1 +2 1021.3 1019.4
ЮЗ 5-8
{8}
17 км 9/8 600 м
[]
+4.9 +2.6 85 0 0 1020.8 1018.9
ЮЗ 6-10
{10}
23 км 9 баллов +6.2 +3.5 83 +2 +2 1021.5 1019.6
ЮЗ 8-13
{13}
20 км 6/6 1000 м
[]
+7.5 +4.0 78 +3 +3 1021.4 1019.6
ЮЗ 9-15
{15}
26 км 9/8 600 м
[]
+8.0 +3.8 75 +3 +3 1021.4 1019.5
ЮЗ 8-12
{15}
29 км 9 баллов +8.2 +4.0 75 +4 +4 1021.2 1019.2
ЮЗ 8-12
{13}
30 км {ливн. осадки} 9/9 1000 м
[]
+10.1 +4.0 66 +6 +6 1020.6 1018.7
ЮЗ 8-12
{15}
28 км в посл. час дождь {ливн. осадки} 10/6 1000 м
[]
+8.9 +4.4 73 +5 +5 1020.8 1019.0 0.1
ЮЗ 7-11
{15}
30 км {ливн. осадки} 9 баллов +9.4 +4.1 69 +6 +6 1020.0 1018.0
ЮЗ 7-11
{12}
30 км {ливн. осадки} 10/10
[]
+9.0 +2.7 65 +5 +5 1019.3 1017.4
ЮЗ 7-11
{13}
30 км {ливн. осадки} 10/9
[]
+8.6 +3.6 71 +5 +5 1019.0 1017.0
ЮЗ 7-11
{15}
29 км {ливн. осадки} 10 баллов +8.2 +3.6 73 +4 +4 1018.4 1016.5 +10.2 0.1
ЮЗ 8-13
{14}
45 км в посл. час осадки {ливн. осадки} 10/9 1000 м
[]
+8.1 +3.7 74 +4 +4 1016.8 1015.0
ЮЗ 7-10
{12}
25 км 10/10 1000 м
[]
+8.3 +3.5 72 +4 +4 1017.8 1015.9
ЮЗ 7-13
{14}
45 км {ливн. осадки, морось} 10 баллов +7.6 +3.6 76 +3 +3 1015.8 1014.0
ЮЗ 7-13
{13}
30 км слаб. морось 10/9 600 м
[]
+7.4 +4.0 79 +3 +3 1014.7 1012.8
ЮЗ 9-13
{16}
7000 м сильн. дождь {ливн. осадки, морось} 10/8 300 м
[]
+6.4 +5.1 91 +1 +1 1013.9 1012.0 3
ЮЗ 4-5
{17}
24 км слаб. дождь {морось} 10 баллов +5.4 +3.9 90 +1 +1 1012.9 1011.1 4
З 7-10
{11}
24 км {дождь} 10/9 600 м
[]
+6.5 +4.4 86 +2 +2 1013.2 1011.3
ЮЗ 8-13
{13}
45 км в посл. час дождь 10/6 600 м
[]
+6.0 +4.5 90 0 0 1013.2 1011.3 2
З 7-11
{14}
30 км в посл. час дождь {ливн. осадки} 10 баллов +5.9 +2.9 81 +1 +1 1014.4 1012.5
З 7-12
{12}
22 км {ливн. осадки, дождь} 1/1 600 м
[]
+5.7 +1.9 77 +1 +1 1015.4 1013.4
З 8-12
{12}
28 км {ливн. осадки, дождь} 4/4 600 м
[]
+5.5 +1.6 76 0 0 1016.4 1014.5
З 7-9
{14}
30 км в посл. час осадки {ливн. осадки} 10 баллов +5.3 +1.1 74 0 0 1017.3 1015.3 +4.4 9 9.4
З 7-10
{10}
24 км 3/1 600 м
[]
+5.5 +1.4 75 0 +1 1019.0 1017.1
З 6-10
{11}
26 км 9/9 1000 м
[]
+5.5 +1.4 75 +1 +1 1018.2 1016.2
З 7-9
{11}
24 км 4 балла +6.2 +1.9 74 +1 +2 1019.7 1017.8
З 7-11
{12}
30 км 4/4 1000 м
[]
+7.1 +2.2 71 +3 +3 1020.3 1018.3
З 8-12
{13}
28 км 1/1 1000 м
[]
+7.8 +1.9 66 +3 +4 1020.8 1018.9
З 8-10
{13}
26 км 9 баллов +7.9 +2.0 66 +3 +4 1021.3 1019.4
З 8-11
{13}
27 км 10/10
[]
+7.3 +1.8 68 +3 +3 1021.5 1019.6
З 10-13
{14}
25 км 9/9
[]
+7.9 +1.8 65 +3 +3 1021.5 1019.6
З 7-10
{14}
29 км 10 баллов +7.7 +1.1 63 +3 +3 1021.4 1019.5
З 5-7
{10}
40 км 10/10
[]
+7.0 +1.1 66 +3 +3 1021.0 1019.2
ЮЗ 3-5
{7}
35 км 10/10
[]
+6.9 +1.0 66 +4 +4 1020.8 1018.9
ЮЗ 6-9
{14}
14 км слаб. морось 10 баллов +6.7 +3.0 77 +2 +2 1020.8 1018.9 +8.5
ЮЗ 4-7
{9}
24 км слаб. морось {дождь} 10/10 600 м
[]
+6.4 +4.3 86 +3 +3 1019.9 1018.1 0.1
ЮЗ 4-6
{8}
19 км слаб. морось 10/10 1000 м
[]
+6.1 +3.7 85 +2 +2 1020.3 1018.4 0.1
Ю 4-8
{9}
19 км слаб. морось {дождь} 10 баллов +6.5 +4.4 86 +3 +3 1019.0 1017.1
ЮЗ 5-9
{9}
14 км слаб. морось {дождь} 10/10 300 м
[]
+6.7 +5.2 90 +2 +2 1018.6 1016.6 0.2
ЮЗ 5-8
{10}
15 км слаб. морось с дождем 10/6 300 м
[]
+7.1 +5.9 92 +3 +3 1018.1 1016.2 0.2
ЮЗ 5-9
{10}
12 км слаб. морось {дождь} 10 баллов +7.5 +6.2 91 +3 +3 1017.4 1015.4 0.1
ЮЗ 7-10
{11}
25 км 10/9 600 м
[]
+8.3 +5.9 85 +4 +4 1016.3 1014.4
ЮЗ 6-8
{10}
18 км в посл. час морось 10/6 300 м
[]
+7.8 +6.1 89 +4 +4 1016.8 1014.9
ЮЗ 6-10
{11}
24 км 10 баллов +8.3 +5.9 85 +4 +4 1015.7 1013.8
ЮЗ 6-10
{10}
30 км 10/10 1000 м
[]
+8.7 +5.8 82 +5 +5 1015.2 1013.3
ЮЗ 6-10
{11}
30 км 10/9 1000 м
[]
+8.6 +5.8 83 +5 +5 1015.0 1013.1
ЮЗ 6-9
{11}
29 км 10 баллов +8.5 +5.7 83 +5 +5 1014.8 1013.0 +6.0 0.6 0.6
ЮЗ 5-12
{12}
40 км 10/10 1000 м
[]
+8.9 +5.2 78 +6 +6 1014.6 1012.6
ЮЗ 7-10
{11}
35 км 10/10 1000 м
[]
+8.6 +5.6 81 +4 +4 1014.7 1012.8
ЮЗ 7-11
{12}
10 км слаб. ливневой дождь {морось} 10 баллов +8.2 +5.5 83 +4 +4 1014.4 1012.6
ЮЗ 6-11
{11}
25 км в посл. час дождь {ливн. осадки, морось} 10/8 600 м
[]
+8.6 +6.3 85 +5 +5 1013.9 1012.1 0.8
ЮЗ 7-13
{13}
11 км {ливн. осадки, морось} 10/8 600 м
[]
+8.9 +6.2 83 +5 +5 1013.2 1011.4
ЮЗ 6-11
{13}
40 км {ливн. осадки, морось} 10 баллов +10.1 +5.7 74 +7 +7 1011.9 1010.2 0.8
ЮЗ 6-12
{13}
45 км 10/9 1000 м
[]
+10.3 +5.4 72 +7 +7 1010.0 1008.2
Ю 7-13
{15}
35 км 10/10 1000 м
[]
+10.3 +5.1 70 +7 +7 1010.8 1009.0
ЮЗ 6-10
{15}
45 км 10 баллов +10.7 +5.6 71 +8 +8 1009.2 1007.4
ЮЗ 10-15
{15}
45 км 10/10 600 м
[]
+10.7 +5.9 72 +7 +7 1008.2 1006.3
ЮЗ 6-12
{16}
6000 м слаб. ливневой дождь {морось} 10/8 300 м
[]
+9.1 +7.8 92 +5 +5 1007.7 1005.8 0.8
З 8-12
{16}
10 км дождь {ливн. осадки, морось} 10 баллов +6.7 +5.3 91 +1 +1 1010.2 1008.3 +10.9 4
З 11-17
{17}
7000 м дождь 9/9 600 м
[]
+4.3 +2.2 86 -3 -3 1014.3 1012.1 0.5
СЗ 7-12
{18}
16 км слаб. дождь 10/6 600 м
[]
+5.6 +3.4 86 0 0 1012.5 1010.4 0.9
З 9-13
{20}
30 км в посл. час дождь {морось} 8 баллов +6.0 +1.7 74 0 0 1015.9 1013.9 0.1
З 8-13
{15}
40 км {дождь, морось} 4/4 1000 м
[]
+5.9 +1.1 71 +1 +1 1017.5 1015.5
З 7-11
{13}
35 км {дождь, морось} 1/1 1000 м
[]
+5.3 +0.7 72 0 0 1018.8 1016.8
З 7-10
{20}
35 км {дождь, морось} 8 баллов +5.4 +0.4 70 0 0 1019.8 1017.9 1
З 6-9
{9}
30 км 10/8 1000 м
[]
+5.4 +1.3 75 +1 +1 1021.6 1019.7
З 6-9
{10}
35 км ясно +5.2 0.0 69 0 0 1020.8 1018.9
ЮЗ 6-8
{10}
30 км 9 баллов +5.0 +1.7 79 0 0 1022.5 1020.5
ЮЗ 5-8
{9}
26 км 9/9 1000 м
[]
+4.6 +1.4 80 -0 -0 1023.2 1021.3
ЮЗ 4-6
{7}
22 км 8/8
[]
+3.5 +1.0 84 -1 -1 1023.8 1021.8
ЮЗ 4-7
{10}
22 км 9 баллов +3.2 +1.0 85 -1 -1 1024.4 1022.3 +3.1 1 6.7
ЮЗ 4-6
{7}
19 км 1/1
[]
+4.1 +1.3 82 -0 0 1025.3 1023.2
ЮЗ 4-7
{7}
18 км 1/1 600 м
[]
+3.5 +1.1 84 -1 -1 1024.8 1022.8
ЮЗ 5-7
{8}
18 км 10 баллов +5.7 +2.4 79 +1 +1 1025.3 1023.4
ЮЗ 7-11
{11}
18 км 10/10
[]
+7.4 +3.1 74 +3 +3 1025.8 1023.8
ЮЗ 7-10
{11}
19 км 10/10
[]
+8.1 +3.7 74 +4 +4 1025.9 1023.9
ЮЗ 7-10
{12}
20 км 10 баллов +9.0 +3.8 70 +5 +5 1025.7 1023.8
ЮЗ 5-9
{11}
25 км 10/6 600 м
[]
+8.5 +4.5 76 +5 +5 1024.4 1022.5
ЮЗ 7-11
{12}
22 км 10/8 600 м
[]
+8.4 +4.0 74 +4 +4 1025.5 1023.5
ЮЗ 7-11
{12}
22 км 10 баллов +9.0 +4.3 72 +5 +5 1024.6 1022.6
ЮЗ 7-11
{13}
30 км 10/10 1000 м
[]
+9.0 +3.7 69 +5 +5 1024.1 1022.2
ЮЗ 6-10
{11}
30 км 10/10 1000 м
[]
+8.7 +3.7 71 +5 +5 1024.4 1022.4
ЮЗ 6-10
{13}
30 км 10 баллов +8.7 +3.3 69 +5 +5 1024.0 1022.2 +9.5
ЮЗ 7-11
{11}
30 км 10/10 600 м
[]
+8.7 +3.5 70 +5 +5 1023.5 1021.5
ЮЗ 5-8
{11}
35 км 10/10 1000 м
[]
+8.5 +3.5 71 +5 +5 1024.4 1022.4
ЮЗ 7-12
{14}
35 км 10 баллов +8.9 +3.6 69 +5 +5 1023.0 1021.1
ЮЗ 8-13
{13}
35 км 10/10 600 м
[]
+8.7 +3.6 70 +4 +4 1022.2 1020.3
ЮЗ 7-13
{14}
45 км 10/10 600 м
[]
+8.2 +3.4 72 +4 +4 1021.8 1019.9
ЮЗ 7-12
{14}
45 км 10 баллов +8.0 +3.4 73 +4 +4 1021.8 1020.0
ЮЗ 8-12
{14}
35 км 10/10
[]
+7.5 +3.6 76 +3 +3 1020.0 1018.2
ЮЗ 7-12
{14}
45 км 10/10 600 м
[]
+7.5 +3.4 75 +3 +3 1020.8 1019.1
ЮЗ 8-13
{14}
40 км 10 баллов +6.8 +3.4 79 +2 +2 1019.2 1017.3
ЮЗ 8-12
{13}
40 км 10/10
[]
+6.7 +3.1 78 +2 +2 1018.9 1017.1
ЮЗ 9-13
{13}
45 км 10/10
[]
+7.1 +2.2 71 +2 +2 1018.2 1016.2
ЮЗ 8-14
{15}
45 км 10 баллов +7.3 +1.3 66 +3 +3 1017.8 1016.2 +6.6
ЮЗ 8-12
{16}
45 км 10/10 2000 м
[]
+7.5 +1.6 66 +3 +3 1018.4 1016.3
ЮЗ 9-15
{15}
45 км 10/10
[]
+7.6 +0.9 62 +3 +3 1017.8 1015.9
ЮЗ 7-12
{16}
30 км в посл. час морось 10 баллов +7.6 +2.7 71 +3 +3 1018.5 1016.6
ЮЗ 9-13
{14}
27 км 10/10 600 м
[]
+8.5 +3.8 72 +4 +4 1018.3 1016.6
ЮЗ 8-13
{16}
22 км 10/10 300 м
[]
+8.8 +4.9 76 +4 +4 1018.7 1016.9
ЮЗ 10-14
{16}
6000 м дымка 10 баллов +9.0 +6.5 84 +4 +4 1019.2 1017.4 0.0
ЮЗ 9-14
{14}
20 км 10/8 300 м
[]
+9.9 +8.3 90 +5 +5 1019.0 1017.1
ЮЗ 8-13
{16}
5000 м дымка 10/10 300 м
[]
+9.0 +7.9 93 +4 +4 1019.3 1017.4
ЮЗ 9-13
{16}
21 км 10 баллов +10.1 +8.5 90 +6 +6 1018.9 1017.0
ЮЗ 9-13
{13}
25 км 10/9 300 м
[]
+10.2 +8.7 90 +6 +6 1019.4 1017.4
ЮЗ 8-11
{14}
45 км 10/6 200 м
[]
+10.2 +8.9 92 +6 +6 1020.0 1018.0
ЮЗ 7-11
{16}
24 км слаб. морось {дымка} 10 баллов +10.3 +8.6 89 +7 +7 1020.5 1018.5 +10.4 0.0
ЮЗ 8-11
{11}
12 км слаб. морось {дождь} 9/9 600 м
[]
+9.8 +8.3 90 +6 +6 1020.9 1019.1 0.3
ЮЗ 7-11
{11}
10 км морось с дождем 10/6 1000 м
[]
+9.9 +8.6 92 +6 +6 1021.1 1019.2 1
ЮЗ 6-9
{11}
9000 м слаб. ливневой дождь {морось} 10 баллов +9.7 +8.1 90 +6 +6 1021.2 1019.3
Местоположение метеостанции Вунстдрехт (Нидерланды): широта 51.45 долгота 4.33 высота над уровнем моря 17 м.
В архиве по умолчанию представлена погода в Вунстдрехте за последнюю неделю. Архивные данные за месяц целиком и за предыдущие месяцы, начиная с января 2011 года, Вы можете получить, выбрав интересующий диапазон дат из раскрывающегося списка и нажав кнопку "Найти!".
*Определитесь, кто Вы:
Внимание! Время в таблицах - всемирное. Для получения местного времени необходимо прибавить поправку, которая равна 1 ч.
Смотрите также архив погоды в соседних городах и на ближайших метеорологических станциях:
Партнеры нашего сайта:      
Пояснения к столбцам:
  • Ветер - указаны скорость ветра в м/с - средняя за 10 мин, порывы в срок и между сроками (в фигурных скобках) и направление, откуда дует ветер: С - северный,
  • СВ - северо-восточный, В - восточный, ЮВ - юго-восточный, Ю - южный, ЮЗ - юго-западный, З - западный, СЗ - северо-западный.
  • Видимость - горизонтальная дальность видимости в метрах или километрах. При видимости от 1 до 10 км при отсутствии осадков обычно наблюдается дымка, при ухудшении видимости до 1 км и менее - туман. В сухую погоду видимость может ухудшаться дымом, пылью или мглою.
  • Явления - указаны атмосферные явления, наблюдавшиеся в срок или в последний час перед сроком; фигурными скобками обозначены явления, наблюдавшиеся между сроками (за 1-3 часа до срока); квадратными скобками обозначены град или гололедные отложения с указанием их диаметра в мм.
  • Облачность - указаны через наклонную черту общая и нижняя облачность в баллах и высота нижней границы облаков в метрах; квадратными скобками обозначены формы облаков: Ci - перистые, Cs - перисто-слоистые, Cc - перисто-кучевые, Ac - высококучевые, As - высокослоистые, Sc - слоисто-кучевые, Ns - слоисто-дождевые, Cu - кучевые, Cb - кучево-дождевые. Подробнее классификацию облаков см. в Атласе облаков (PDF).
  • T - Температура воздуха - температура, измеренная на высоте 2 м над землей.
  • Td - Температура точки росы - температура, при понижении до которой содержащийся в воздухе водяной пар достигнет насыщения.
  • f - Относительная влажность воздуха - влажноcть воздуха, измеренная на высоте 2 м над землей.
  • Te - Эффективная температура - температура, которую ощущает одетый по сезону человек в тени. Характеристика душности погоды. При расчете учитывается влияние влажности воздуха и скорости ветра на теплоощущения человека.
  • Tes - Эффективная температура на солнце - температура, которую ощущает человек, с поправкой на солнечный нагрев. Характеристика знойности погоды. Зависит от высоты солнца над горизонтом, облачности и скорости ветра. Ночью, в пасмурную погоду, а также при ветре 12 м/с и более поправка равна нулю.
  • P - Атмосферное давление - приведенное к уровню моря атмосферное давление.
  • Po - Атмосферное давление - измеренное на уровне метеостанции атмосферное давление.
  • Tmin - Минимальная температура - минимум температуры воздуха на высоте 2 м над землей.
  • Tmax - Максимальная температура - максимум температуры воздуха на высоте 2 м над землей.
  • R - Количество осадков - Количество выпавших осадков за период времени, мм. При наведении курсора мыши на число - период времени, за который выпало указанное количество осадков.
  • R24 - Количество осадков - Количество выпавших осадков за 24 часа, мм.
  • S - Снежный покров - Высота снежного покрова, см. При наведении курсора мыши на число - состояние снежного покрова и степень покрытия местности в баллах.